Location: Newark
(45.4422°N, 16.2769°E)
Time: 05:41:43
(UTC+00:00)

Courier 1B Rocket - Pass Details

Date: 14 December 2019
Orbit: 920 x 1202 km, 28.2° (Epoch: 20 January)

Event Time Altitude Azimuth Distance (km) Brightness Sun altitude
Rises 04:12:04 0° 226° (SW) 3,937 - -22.6°
Exits shadow 04:14:06 - 217° (SW) 3,385 7.6 -22.3°
Reaches altitude 10° 04:16:06 10° 206° (SSW) 2,921 7.3 -21.9°
Maximum altitude 04:20:10 16° 171° (S) 2,438 7.3 -21.2°
Drops below altitude 10° 04:24:05 10° 135° (SE) 2,800 8.2 -20.6°
Sets 04:27:49 0° 115° (ESE) 3,695 9.5 -19.9°
